Weather in Uran

Russia / Orenburg Oblast     52°31′38″N   53°04′59″E
temp.,
°C
wind,
m/s
gust,
m/s
humid.,
%
clouds,
%
prec.,
mm/h
press.,
hPa
HPBL,
m
25 february, thu
thu2523:00−25nw511920 0.0 1032242
02:00−27nw34955 0.0 103331
05:00−29nw33962 0.0 103426
08:00−29wnw23970 0.0 103520
11:00−25w11910 0.0 103684
14:00−21ssw238643 0.0 1035237
17:00−20ssw368971 0.0 1034289
20:00−22s3892100 0.0 1032247
26 february, fri
fri2623:00−20s5998100 0.1 1030336
02:00−20s61197100 0.8 1027412
05:00−18sse61294100 1.3 1025500
08:00−16sse71294100 0.6 1022533
11:00−14sse71194100 1.2 1022587
14:00−12sse71092100 0.5 1020623
17:00−11sse61091100 0.8 1019595
20:00−12sse5119397 0.1 1017408
27 february, sat
sat2723:00−10s6129499 0.4 1014439
02:00−8s91594100 1.1 1009429
05:00−5s101995100 4.4 1004549
08:00−2ssw71297100 3.1 1001360
11:00+1wsw61199100 3.4 1001564
14:00+1wsw61210096 0.1 1001518
17:00+1wsw5109898 0.2 1001519
20:000sw5998100 0.4 1001442
28 february, sun
sun2823:000sw5998100 1.0 1001479
02:00−1sw51095100 0.4 1000388
05:00−2sw51195100 0.6 1000391
08:00−1sw61196100 0.6 1000500
11:00−1wsw5897100 1.5 1001534
14:00−4wnw4696100 0.8 1003284
17:00−7nw6894100 1.3 1005460
20:00−12nw599399 0.1 1008349
1 march, mon
mon123:00−16wnw489696 0.2 1011171
02:00−18wnw469772 0.0 1013117
05:00−19wnw349977 0.0 101478
08:00−20wnw339977 0.0 101668
11:00−16wnw349581 0.1 1017230
14:00−12nw359097 0.1 1019423
17:00−11nw359199 0.1 1020501
20:00−14nw369596 0.1 1021142